User: anonymous   Login
Location: Owatonna
(44.0840°N, 93.2260°W)
Time: 06:02:01
(UTC-05:00)
Language:

Cosmos 1500 Rocket - Orbit

View from above orbital plane
View from above orbital plane
View from above satellite
View from above satellite

Ground track
Ground track

The orbit data is extracted from the following two-line orbital elements,

1 14373U 83099B   17291.57179402 +.00000121 +00000-0 +11681-4 0  9997
2 14373 082.5383 129.2535 0020265 175.2315 206.8554 14.83697366839176
Epoch (UTC): 18 October 2017 13:43:23
Eccentricity: 0.0020265
inclination: 82.5383°
perigee height: 603 km
apogee height: 632 km
right ascension of ascending node: 129.2535°
argument of perigee: 175.2315°
revolutions per day: 14.83697366
mean anomaly at epoch: 206.8554°
orbit number at epoch: 83917

The dashed part of the orbit path shows where the satellite is in the earth's shadow,  

DLR